Regional Weather Roundup
Issued by NWS Upton, NY

Current Version | Previous Version | Text Only | Print | Product List | Glossary On
Versions: 1 2 3 4 5 6 7 8 9 10 11 12 13 14 15 16 17 18 19 20 21 22 23 24 25 26 27 28 29 30 31 32 33 34 35 36 37 38 39 40 41 42 43 44 45 46 47 48 49 50
000 ASUS41 KOKX 051808 RWROKX REGIONAL WEATHER ROUNDUP NATIONAL WEATHER SERVICE NEW YORK NY 200 PM EDT SUN JUL 05 2015 NOTE: "FAIR" INDICATES FEW OR NO CLOUDS BELOW 12,000 FEET WITH NO SIGNIFICANT WEATHER AND/OR OBSTRUCTIONS TO VISIBILITY. NYZ071-072-176-178-NJZ106-104-051900- NEW YORK CITY METRO AREA CITY SKY/WX TMP DP RH WIND PRES REMARKS CENTRAL PARK MOSUNNY 81 63 54 VRB6 30.14F LAGUARDIA APRT PTSUNNY 82 58 43 W6 30.11S KENNEDY INTL PTSUNNY 80 65 59 S14 30.13S NEWARK/LIBERTY PTSUNNY 83 62 49 CALM 30.12S BRNX BOT. GARD N/A N/A N/A N/A SW9 30.13R TETERBORO MOSUNNY 82 59 45 CALM 30.11S $$ NYZ177-179-078>081-051900- LONG ISLAND NEW YORK CITY SKY/WX TMP DP RH WIND PRES REMARKS FARMINGDALE MOSUNNY 79 63 57 S15 30.12S ISLIP PTSUNNY 79 63 57 SW12 30.10S SHIRLEY MOSUNNY 78 63 59 S13 30.13S WESTHAMPTON MOSUNNY 77 62 59 S12 30.14S MONTAUK POINT N/A 79 63 57 S7 30.12F $$ NYZ052-065-067-051900- HUDSON VALLEY CITY SKY/WX TMP DP RH WIND PRES REMARKS WHITE PLAINS MOSUNNY 80 62 54 NW3 30.12F NEWBURGH MOSUNNY 79 63 57 CALM 30.14F MONTGOMERY MOSUNNY 80 63 55 CALM 30.12F POUGHKEEPSIE SUNNY 81 62 52 W6 30.11F ALBANY PTSUNNY 80 59 48 NW9 30.11S $$ NJZ001-105-106-008-010-013-015-019>022-104-051900- NEW JERSEY CITY SKY/WX TMP DP RH WIND PRES REMARKS NEWARK/LIBERTY PTSUNNY 83 62 49 CALM 30.12S TETERBORO MOSUNNY 82 59 45 CALM 30.11S CALDWELL MOSUNNY 80 62 54 CALM 30.13S MORRISTOWN MOSUNNY 82 64 54 W9 30.13S SOMERVILLE MOSUNNY 80 63 55 VRB5 30.12S SUSSEX SUNNY 79 57 46 S3 30.14S ANDOVER N/A 78 59 51 CALM 30.15S TRENTON MOSUNNY 80 63 55 MISG 30.13F MILLVILLE CLOUDY 80 67 64 SW6 30.14F ATLANTIC CITY PTSUNNY 80 64 58 S6 30.14S WRIGHTSTOWN MOSUNNY 81 64 56 VRB5 30.11F TOMS RIVER MOSUNNY 84 63 48 W7 30.13F BELMAR MOSUNNY 82 63 51 W5 30.13F $$ PAZ047>061-062-071-051900- EASTERN PENNSYLVANIA CITY SKY/WX TMP DP RH WIND PRES REMARKS PHILADELPHIA MOSUNNY 81 63 54 S7 30.14S ALLENTOWN MOSUNNY 79 61 53 CALM 30.15S SCRANTON NOT AVBL $$ CTZ002-004>006-009-010-012-RIZ004-006-007-MAZ004-011-015-051900- SOUTHERN NEW ENGLAND IN CT CITY SKY/WX TMP DP RH WIND PRES REMARKS BRADLEY INTL MOSUNNY 82 59 45 NW3 30.09S HARTFORD PTSUNNY 82 60 47 S9 30.09S DANBURY SUNNY 79 58 48 VRB5 30.13F WTRBRY/OXFORD MOSUNNY 79 59 50 CALM 30.15S BRIDGEPORT SUNNY 80 63 55 SW12 30.11F MERIDEN MOSUNNY 83 61 47 W6 30.09F NEW HAVEN MOSUNNY 75 64 68 SW10 30.12S CHESTER FAIR 79 64 61 SW7 30.12S GROTON SUNNY 75 62 64 SW13 30.09F WILLIMANTIC MOSUNNY 81 61 50 VRB7 30.10F IN RI CITY SKY/WX TMP DP RH WIND PRES REMARKS PROVIDENCE MOSUNNY 82 60 47 W12 30.08F BLOCK ISLAND SUNNY 75 63 64 SW14G20 30.12S WESTERLY SUNNY 77 60 55 SW12 30.11S IN MA CITY SKY/WX TMP DP RH WIND PRES REMARKS BOSTON MOSUNNY 80 57 45 SE6 30.06F WORCESTER SUNNY 79 57 46 NW3 30.12S WESTFIELD MOSUNNY 82 58 43 CALM 30.09S PROVINCETOWN SUNNY 82 19 9 NW8 30.08S NANTUCKET SUNNY 74 63 68 W16 30.10S $$ ANZ330-335-338-340-345-350-353-355-051900- COASTAL MARINE OBSERVATIONS STATION/POSITION TIME SKY/WX TEMP WIND PRES VSBY WAVE AIR SEA DIR/SP/G HT/PER (UTC) (F) (DEG/KT/KT) (MB) (MI) (FT/S) NY HARB ENTRANCE 1750 72 71 200/ 6/ 8 1020.0 3/ 8 4S FIRE IS 1703 70 N/A 4/ 8 20S FIRE ISLAND 1750 71 70 220/ 6/ 8 1020.2 3/ 8 GREAT SOUTH BAY 1730 72 75 250/ 12/ 14 N/A 23SW MTP 1750 69 69 230/ 10/ 12 1019.9 4/ 8 HUDSON CANYON NOT AVBL KINGS POINT 1700 80 66 CALM / 2 1019.3 CENTRAL LI SOUND NOT AVBL EASTERN LI SOUND 1700 67 64 240/ 10/ 12 N/A ROBBINS REEF 1700 74 150/ 11/ 12 1018.9 $$ >>>>>>>>>>>>>>>>>>>>>>>>>>>> KEY <<<<<<<<<<<<<<<<<<<<<<<<<<< > < > SKY/WX - SKY CONDITION/PRESENT WEATHER < > TMP - TEMPERATURE IN FAHRENHEIT < > DP - DEWPOINT IN FAHRENHEIT < > RH - RELATIVE HUMIDITY IN PERCENT < > WIND - DIRECTION AND SPEED IN MPH < > PRES - MEAN SEA LEVEL PRESSURE IN INCHES OF HG < > WCI - WIND CHILL INDEX < > VSB - VISIBILITY IN MILES < > HX - HEAT INDEX < > TC - TEMPERATURE IN CELSIUS < > VRB - VARIABLE WIND DIRECTION < > < >>>>>>>>>>>>>>>>>>>>>>>>>>>> KEY <<<<<<<<<<<<<<<<<<<<<<<<<<<

USA.gov is the U.S. government's official web portal to all federal, state and local government web resources and services.